Theta_e
282 282 281 278 277 279 276 276 272 274 273 277 281 282 283 284 284 284 284 284 285 286 286 287 288 288 289 290 290 291 291 291 293 294 296 297 297 296 297 297 298 299 300 302
279 281 279 277 279 279 279 278 277 276 275 283 283 284 284 283 284 283 284 284 285 286 286 286 287 288 288 289 289 290 290 291 292 294 294 295 296 296 295 296 297 298 298 298
276 280 278 276 279 278 278 279 278 274 279 283 281 281 283 284 284 285 284 285 285 285 286 287 287 288 287 288 290 289 290 290 292 292 292 294 295 294 294 295 297 295 296 296
277 280 272 280 283 281 279 280 281 281 284 283 282 284 285 286 285 284 285 285 286 286 287 287 288 288 289 289 289 289 290 289 291 291 292 293 293 293 293 294 295 295 295 295
276 276 280 281 282 279 278 278 283 282 282 283 284 285 284 286 287 286 286 287 287 288 288 288 288 289 288 287 288 287 287 288 290 291 291 292 293 293 293 293 294 295 295 295
279 273 272 281 283 284 283 276 283 283 283 283 284 278 282 286 287 287 287 287 287 288 288 287 288 288 287 286 287 285 286 288 290 292 292 291 293 294 294 293 293 293 294 296
279 277 280 286 285 284 275 279 284 285 285 285 283 284 287 288 287 287 287 287 287 287 286 287 288 287 285 285 284 287 289 289 290 290 291 292 293 293 294 293 293 293 292 293
281 276 275 287 284 278 285 287 286 287 287 286 287 287 287 286 286 286 286 286 287 286 286 287 287 286 285 285 287 287 288 288 289 289 291 292 293 293 293 292 292 293 293 292
284 286 289 289 287 289 289 287 287 287 288 287 286 286 286 285 285 285 286 286 286 286 285 286 286 285 284 286 287 287 287 287 288 289 290 291 291 292 291 291 291 289 290 291
284 288 289 290 290 290 289 288 288 288 288 287 285 285 285 285 285 285 285 285 285 285 284 284 285 286 286 286 286 286 286 286 288 288 288 289 291 291 291 289 288 288 287 288
286 289 290 290 290 290 290 289 287 288 287 286 286 285 285 284 285 285 285 285 285 284 283 283 285 285 285 285 286 285 286 287 287 287 288 288 289 290 290 289 287 286 286 286
287 290 290 287 291 290 289 287 287 286 285 286 286 285 285 285 285 284 284 284 283 283 283 283 283 284 284 285 284 284 284 285 286 287 288 287 287 289 287 287 286 285 285 284
291 291 290 289 289 289 288 288 288 287 286 285 286 285 285 284 284 283 283 283 282 282 283 283 283 283 284 284 284 283 282 284 286 286 286 286 286 286 285 287 287 286 285 284
294 290 287 288 287 289 288 289 286 287 287 286 285 285 285 284 284 283 282 282 283 283 283 283 283 282 283 283 283 283 283 283 285 286 286 285 284 285 285 283 283 283 285 284
292 292 290 290 289 288 289 288 286 286 286 286 286 285 285 283 282 282 283 282 283 282 282 282 282 282 284 283 283 283 283 283 284 285 285 285 285 285 284 284 284 283 284 284
292 291 290 288 288 288 287 287 286 286 286 286 285 285 283 283 283 283 283 282 280 280 280 280 281 282 283 283 284 284 285 282 284 285 285 285 284 284 284 283 283 283 282 281
290 288 288 287 287 287 286 287 287 287 287 286 285 286 284 283 282 281 281 281 281 280 280 280 280 281 282 281 282 284 284 284 283 284 283 282 282 282 282 281 281 281 281 281
294 293 292 290 288 287 287 287 287 287 286 286 286 285 283 282 282 282 281 281 280 280 281 281 280 280 281 281 281 283 283 282 282 282 282 281 281 282 281 280 280 280 280 280
295 293 292 291 290 289 288 287 287 287 287 286 285 283 283 283 282 282 282 280 277 279 280 281 277 279 281 279 279 283 282 282 281 282 281 280 281 281 280 280 279 279 279 279
295 294 292 291 290 289 288 288 288 287 286 286 284 282 280 279 279 279 279 279 280 283 281 280 280 281 280 280 279 282 282 281 281 281 280 280 280 279 279 278 278 278 279 278
294 294 292 291 289 290 290 289 287 286 286 285 283 281 279 280 278 277 277 278 281 281 280 278 280 281 281 279 280 282 282 281 280 280 279 279 279 279 278 278 278 278 278 277
294 293 292 291 290 289 289 289 287 286 285 284 283 281 279 279 278 278 278 280 283 279 280 281 282 277 279 276 281 281 281 280 279 279 279 279 278 278 278 278 278 278 277 278
295 294 293 292 289 288 289 288 287 286 285 284 282 281 280 280 280 278 277 280 281 280 280 281 279 276 275 278 281 281 280 279 279 279 279 279 278 278 278 277 277 277 277 277
297 295 293 292 291 288 287 287 287 286 285 285 284 283 282 281 281 283 283 283 281 281 280 281 278 276 275 279 281 281 280 280 280 279 279 277 278 278 277 277 276 277 276 276
296 295 293 291 288 287 287 288 286 285 284 284 283 283 283 284 283 282 282 282 280 279 279 279 277 276 277 279 280 280 280 280 279 278 277 277 277 276 277 276 276 275 275 274
296 294 292 291 290 289 288 287 286 285 284 283 283 283 283 283 283 282 283 282 281 279 279 281 279 278 278 279 280 279 279 279 278 278 277 276 276 275 275 275 274 274 274 274
297 291 292 291 290 289 289 287 286 285 284 284 283 283 283 283 282 282 281 281 280 280 279 280 280 279 279 279 279 279 279 279 278 277 276 276 275 275 274 274 274 273 273 272
Wind_Speed
11 13 10 11 14 11 11 11 13 17 19 19 15 13 12 9 11 14 15 15 16 17 15 15 16 15 15 15 14 15 15 15 14 15 14 13 13 14 14 13 12 12 12 11
14 5 5 15 13 13 14 11 12 16 19 9 13 16 12 11 12 12 13 15 16 15 15 16 17 15 14 15 14 14 14 15 13 16 15 14 13 13 13 12 12 12 12 12
7 3 8 12 10 9 11 11 9 15 16 14 14 13 12 13 12 9 13 14 15 15 14 15 16 14 13 14 14 13 12 14 14 14 15 15 13 13 13 13 11 11 11 12
9 11 6 4 2 5 9 13 13 13 6 4 10 14 14 9 7 10 14 13 13 13 14 15 14 13 12 13 13 13 14 14 14 14 14 13 14 14 13 12 11 9 10 11
4 9 16 11 3 4 8 14 13 11 6 10 11 13 12 4 14 14 13 11 12 12 14 12 12 12 12 12 13 13 14 14 14 14 13 12 13 12 11 11 10 10 9 11
7 7 5 5 5 1 5 9 3 6 8 10 8 10 10 15 12 13 13 11 12 12 11 11 11 11 12 11 12 12 12 14 14 13 13 11 11 11 11 10 10 9 10 11
10 8 10 5 8 4 6 7 3 7 9 11 8 8 14 13 14 13 11 12 11 10 9 10 10 11 10 9 10 13 14 12 12 13 14 12 10 9 10 9 9 8 11 10
6 5 8 10 11 7 4 4 6 8 9 9 10 10 13 14 13 12 13 11 10 9 9 8 9 9 10 11 11 11 13 12 12 12 11 12 10 9 10 10 10 12 12 10
6 4 6 13 11 8 9 8 8 9 9 8 10 11 13 12 12 11 11 10 9 10 9 9 9 8 10 11 12 13 13 13 11 11 12 11 12 10 8 11 10 11 10 10
7 6 11 13 14 13 7 8 7 6 6 6 9 10 11 11 10 9 10 9 9 9 9 9 9 10 10 11 12 12 12 11 10 9 10 11 8 8 8 9 10 11 11 11
15 18 14 11 11 13 11 6 6 4 4 6 7 8 10 10 9 9 9 8 8 9 7 8 10 10 10 11 12 11 11 9 8 8 9 8 10 7 8 11 10 10 10 10
5 6 6 3 6 11 10 8 7 4 4 4 5 7 7 8 8 8 8 8 7 8 9 9 9 9 11 12 12 11 10 9 6 6 7 7 8 9 3 11 9 9 11 13
8 2 5 1 6 7 9 9 6 5 4 4 4 6 4 6 6 6 6 7 7 8 8 8 8 9 11 10 10 9 9 9 8 6 8 8 8 8 8 6 2 13 12 14
11 5 8 9 7 8 9 8 5 6 4 4 4 4 2 5 3 5 5 6 7 7 7 8 8 9 9 9 9 8 8 6 9 8 7 6 6 7 7 8 8 8 10 12
13 13 9 9 11 9 11 9 9 8 8 7 5 4 2 4 1 2 4 5 4 6 6 7 7 8 8 8 7 7 6 7 6 5 5 6 7 7 6 7 8 9 9 10
14 14 14 11 12 12 12 12 12 10 9 7 6 6 5 5 3 2 0 3 4 5 6 6 6 7 7 8 8 5 3 3 7 6 5 6 7 7 7 8 8 8 9 10
12 17 17 16 15 14 15 13 12 11 9 9 8 7 7 7 6 6 4 2 1 2 4 5 6 7 7 8 9 6 5 6 5 6 7 7 7 8 8 8 8 8 8 9
15 14 15 17 15 15 15 14 12 11 10 10 9 9 9 9 9 7 6 5 4 4 2 4 6 6 6 7 8 6 5 6 6 5 6 7 7 7 7 8 8 9 8 9
15 15 14 15 15 15 14 14 13 12 11 10 11 9 10 10 9 8 7 5 3 7 4 3 1 9 5 6 7 6 5 6 6 6 6 8 6 8 7 8 8 9 9 9
14 15 15 15 16 15 14 13 13 13 12 12 9 8 8 6 3 2 7 9 10 4 2 2 6 4 4 2 4 6 5 6 6 6 6 7 7 8 8 9 9 9 9 10
15 15 17 17 16 16 14 12 13 15 14 14 15 12 11 11 10 9 10 8 10 9 7 4 6 3 4 4 6 4 5 5 6 6 6 7 7 8 8 8 9 9 9 10
12 14 17 17 17 17 17 14 15 15 16 14 11 11 11 13 12 13 12 10 7 11 7 7 7 5 3 6 7 4 5 6 6 6 6 6 7 8 9 9 9 9 9 9
13 15 16 16 18 17 16 16 16 17 15 15 14 16 15 12 12 12 12 15 10 10 8 9 8 8 3 6 7 5 6 6 7 7 7 7 8 8 9 9 9 10 10 10
13 14 16 15 14 14 17 18 18 17 16 16 16 16 14 11 11 11 11 10 17 10 10 6 9 8 7 6 7 6 6 6 7 7 8 9 8 8 9 9 10 10 10 11
14 14 13 15 16 15 17 16 16 16 17 16 16 15 16 12 11 10 11 10 12 12 10 11 11 11 7 7 7 6 6 7 7 7 8 8 9 9 9 9 10 10 10 10
14 10 12 17 15 13 11 12 13 13 13 13 12 11 11 11 10 11 11 12 12 13 11 9 9 9 9 9 8 8 7 8 8 8 8 9 9 9 9 10 10 10 10 10
13 10 11 11 12 13 13 14 14 15 16 14 13 13 13 12 12 12 12 11 10 11 10 9 10 11 9 9 8 8 8 8 8 8 8 9 9 9 9 9 9 9 10 9
Wind_Direction
297 287 294 314 286 281 278 275 274 297 309 300 317 288 270 272 314 316 319 329 323 327 330 330 333 338 335 337 339 333 333 333 339 340 337 343 343 351 340 344 344 343 346 353
290 49 314 292 274 266 270 286 266 276 273 316 299 331 339 312 307 308 316 315 328 326 326 335 332 337 339 338 335 330 334 328 341 337 342 342 346 358 343 345 345 355 6 7
292 254 281 266 229 257 270 260 265 275 290 302 314 314 296 282 306 309 300 323 326 328 335 335 333 341 342 334 333 336 333 335 337 339 342 345 348 349 353 344 347 4 9 15
291 302 259 78 219 230 261 276 274 270 302 294 296 291 292 317 292 335 330 324 329 336 337 333 339 346 338 341 344 346 345 341 338 338 339 346 350 351 352 346 353 12 11 15
281 300 278 276 206 253 278 289 281 278 310 276 282 301 300 333 349 330 324 339 338 339 334 336 348 351 348 351 354 351 346 338 334 334 336 347 350 356 352 350 356 5 19 17
298 300 286 58 144 73 301 264 98 269 314 309 307 305 331 329 313 322 344 341 338 335 336 345 349 351 357 356 353 346 348 334 332 337 337 341 359 351 360 1 1 2 5 9
246 252 263 256 142 163 256 45 332 308 307 313 327 293 296 315 331 338 335 337 343 335 343 348 356 0 355 338 350 338 332 343 346 344 333 343 1 8 352 358 1 22 9 7
240 266 269 141 151 216 14 318 304 307 310 317 307 314 311 331 332 333 339 334 345 337 345 356 9 356 323 343 346 341 332 345 351 348 346 343 355 6 5 8 3 359 11 16
230 250 101 187 234 209 257 290 298 308 315 317 320 318 331 328 334 338 334 344 351 348 343 356 1 330 327 333 343 339 330 340 348 355 352 349 355 1 11 10 6 7 5 360
276 249 261 217 219 249 252 266 286 306 315 320 321 328 325 335 338 339 345 349 351 344 356 346 326 332 337 345 343 329 330 333 340 2 348 353 2 5 16 16 9 14 6 358
251 264 259 236 248 219 229 234 260 264 295 315 322 324 335 334 337 347 348 347 359 1 339 334 340 347 351 352 347 334 334 334 3 349 349 1 352 9 11 53 43 27 10 6
258 327 226 332 218 199 211 222 220 242 271 296 314 326 335 332 345 356 342 5 354 343 349 355 350 348 7 5 347 339 338 345 354 337 346 8 351 354 113 102 110 70 51 35
252 275 238 239 177 181 210 206 203 217 243 283 302 331 326 331 10 314 353 356 0 354 6 356 360 10 12 359 342 359 344 344 331 357 357 5 353 358 359 29 147 37 26 28
237 206 217 193 202 200 211 199 155 246 220 244 295 283 319 316 343 352 11 10 1 4 14 10 9 22 14 356 352 8 347 353 341 358 357 8 351 350 12 3 351 355 3 8
212 209 231 206 213 198 200 203 207 219 218 221 212 251 261 274 271 351 15 8 353 19 23 15 12 18 11 358 357 13 10 13 343 341 349 345 355 4 8 353 354 351 355 358
210 209 217 222 211 203 206 208 217 224 218 223 227 213 216 227 209 180 58 19 342 20 12 18 12 10 5 357 339 5 20 108 307 350 3 2 351 351 353 353 354 352 359 9
208 206 211 219 216 214 212 213 219 223 216 220 220 208 205 206 208 199 191 208 265 343 345 17 5 353 1 9 333 356 354 8 331 6 358 6 352 358 2 359 357 355 359 21
222 224 214 220 214 216 217 214 220 220 214 212 213 202 210 208 215 192 196 209 231 240 302 2 12 329 350 16 333 345 352 353 359 5 357 1 353 350 354 356 353 348 349 352
218 222 219 216 216 214 216 215 212 213 209 207 205 204 215 213 211 205 198 206 229 244 189 261 39 269 332 50 335 321 346 345 346 352 358 337 343 349 343 349 343 340 340 338
224 220 221 217 212 210 210 209 204 205 206 202 199 165 202 194 177 171 227 209 228 245 193 195 274 284 301 27 315 312 335 335 338 338 354 324 340 334 333 335 331 330 334 330
220 219 218 216 212 210 209 202 197 203 200 202 201 193 197 198 194 197 211 227 217 192 214 171 254 275 288 333 301 322 323 324 326 326 328 329 326 322 325 325 321 324 325 321
229 224 220 216 213 212 209 210 200 201 200 200 194 177 189 202 194 206 226 229 208 150 208 218 221 111 334 314 277 303 309 309 314 314 316 318 314 319 312 311 314 312 313 308
226 227 229 218 211 210 205 211 205 201 202 190 187 188 200 207 204 205 216 211 231 175 208 225 132 144 210 256 266 280 285 295 296 300 302 307 309 304 301 306 310 306 304 308
241 231 225 219 208 205 209 204 208 207 202 204 196 204 202 208 214 215 218 207 189 174 202 204 164 167 215 256 261 265 273 284 290 294 303 308 296 300 301 303 299 306 306 305
247 230 223 216 208 213 211 201 201 209 207 206 196 198 209 215 212 210 210 197 166 185 202 202 185 195 223 241 251 259 268 274 284 299 295 289 300 297 294 300 299 300 307 298
254 237 218 210 211 210 206 190 198 206 201 202 193 189 195 209 214 215 207 206 192 196 216 195 189 203 220 230 238 246 261 269 273 277 288 288 291 295 292 297 298 296 295 298
252 231 225 224 214 209 204 199 197 204 204 201 197 184 189 196 204 205 209 200 203 189 204 213 201 206 221 228 230 238 249 258 265 279 289 288 285 288 289 289 290 292 294 292